This is the latest recevied weather packets stored in our database for station/object N8XHB. If no packets are shown the sender has not sent any weather packets the latest 10 day(s).
| Time | Temp. | Humidity | Pressure | Rain* | Wind** | Luminosity | Snow |
|---|---|---|---|---|---|---|---|
| 1777413034 | 14.44° C | 60% | 1013.2 hPa | 0 mm | - | 44 W/m² | - |
| 1777412734 | 14.44° C | 60% | 1012.9 hPa | 0 mm | - | 48 W/m² | - |
| 1777412432 | 14.44° C | 62% | 1012.9 hPa | 0 mm | - | 45 W/m² | - |
| 1777412131 | 14.44° C | 60% | 1012.8 hPa | 0 mm | - | 47 W/m² | - |
| 1777411827 | 14.44° C | 59% | 1012.6 hPa | 0 mm | - | 44 W/m² | - |
| 1777411526 | 15° C | 58% | 1012.5 hPa | 0 mm | - | 44 W/m² | - |
| 1777411221 | 14.44° C | 61% | 1012.5 hPa | 0 mm | - | 44 W/m² | - |
| 1777410920 | 14.44° C | 59% | 1012.3 hPa | 0 mm | - | 45 W/m² | - |
| 1777410620 | 14.44° C | 58% | 1012.3 hPa | 0 mm | - | 46 W/m² | - |
| 1777410315 | 14.44° C | 59% | 1012.6 hPa | 0 mm | - | 47 W/m² | - |
| 1777410010 | 14.44° C | 63% | 1012.9 hPa | 0 mm | - | 49 W/m² | - |
| 1777409705 | 14.44° C | 62% | 1013 hPa | 0 mm | - | 51 W/m² | - |
| 1777409401 | 14.44° C | 61% | 1013.2 hPa | 0 mm | - | 65 W/m² | - |
| 1777409096 | 13.89° C | 62% | 1012.9 hPa | 0 mm | - | 100 W/m² | - |
| 1777408793 | 14.44° C | 62% | 1013.1 hPa | 0 mm | - | 100 W/m² | - |
| 1777408489 | 14.44° C | 62% | 1013 hPa | 0 mm | - | 129 W/m² | - |
| 1777408184 | 13.89° C | 64% | 1013.2 hPa | 0 mm | - | 101 W/m² | - |
| 1777407879 | 13.89° C | 63% | 1013.2 hPa | 0 mm | - | 101 W/m² | - |
| 1777407578 | 13.89° C | 65% | 1013.4 hPa | 0 mm | - | 101 W/m² | - |
| 1777407277 | 14.44° C | 62% | 1013.4 hPa | 0 mm | - | 118 W/m² | - |
| 1777406971 | 13.89° C | 64% | 1013.6 hPa | 0 mm | - | 170 W/m² | - |
| 1777406671 | 14.44° C | 62% | 1013.5 hPa | 0 mm | - | 166 W/m² | - |
| 1777406367 | 13.89° C | 64% | 1013.5 hPa | 0 mm | - | 222 W/m² | - |
| 1777406067 | 13.89° C | 63% | 1013.7 hPa | 0 mm | - | 206 W/m² | - |
| 1777405764 | 13.89° C | 63% | 1013.4 hPa | 0 mm | - | 125 W/m² | - |
* Rain latest hour (hover to see other rain measurements)
** Current wind speed in m/s (hover to see current wind gust speed)